Regional Weather Roundup
Issued by NWS

Home | Current Version | Previous Version | Graphics & Text | Print | Product List | Glossary On
Versions: 1 2 3 4 5 6 7 8 9 10 11 12 13 14 15 16 17 18 19 20 21 22 23 24 25 26 27 28 29 30 31 32 33 34 35 36 37 38 39 40 41 42 43 44 45 46 47 48 49 50
000
ASUS43 KBIS 210502
RWRND

NORTH DAKOTA REGIONAL WEATHER ROUNDUP
NATIONAL WEATHER SERVICE BISMARCK ND
1200 AM CDT SAT OCT 21 2017

NOTE: "FAIR" INDICATES FEW OR NO CLOUDS BELOW 12,000 FEET WITH NO
SIGNIFICANT WEATHER AND/OR OBSTRUCTIONS TO VISIBILITY.


NDZ001>003-009>011-017-210600-
NORTHWEST NORTH DAKOTA

CITY           SKY/WX    TMP DP  RH WIND       PRES   REMARKS
WILLISTON        N/A    N/A N/A N/A MISG      29.25R
MINOT          PTCLDY    66  50  56 S21G29    29.15F
MINOT AFB      PTCLDY    58  49  72 SE9       29.14F
$$

NDZ018>021-031>035-040>046-210600-
SOUTHWEST NORTH DAKOTA

CITY           SKY/WX    TMP DP  RH WIND       PRES   REMARKS
BISMARCK       CLOUDY    63  53  70 S14       29.26S
DICKINSON      PTCLDY    62  34  35 W32G46    29.30R
GARRISON         N/A     63  51  65 S16       29.18F
HETTINGER ARPT CLEAR     61  39  44 NW24G35   29.35R
$$

NDZ004>008-012>016-024-026-027-054-210600-
NORTHEAST NORTH DAKOTA

CITY           SKY/WX    TMP DP  RH WIND       PRES   REMARKS
GRAND FORKS    PTCLDY    69  56  62 S21G31    29.36F
GRND FRKS AFB  PTCLDY    67  54  63 S20       29.35F
DEVILS LAKE    PTCLDY    62  53  72 S17       29.29F
$$

NDZ022-023-025-028>030-036>039-047>053-210600-
SOUTHEAST NORTH DAKOTA

CITY           SKY/WX    TMP DP  RH WIND       PRES   REMARKS
FARGO          MOCLDY    68  57  68 S17G35    29.41F
JAMESTOWN      CLEAR     63  54  72 S14       29.33S
$$





USA.gov is the U.S. government's official web portal to all federal, state and local government web resources and services.